{"data":{"norad_id":48360,"intl_designator":"2021-038H","name":"STARLINK-2622","alt_names":[],"object_type":"PAYLOAD","status":"ACTIVE","operator":null,"country":"US","launch_date":"2021-05-04","launch_site_code":"AFETR","launch_vehicle":null,"mission":null,"orbit_class":"UNKNOWN","rcs_meters":null,"size_class":null,"mass_kg":null,"dimensions":null,"purposes":["comms"],"wikipedia_slug":null,"has_3d_model":false,"image_url":null,"decayed_at":null,"tle_current":{"epoch":"2026-09-19T20:11:03.416928Z","epoch_age_seconds":90576,"freshness":"FRESH","line1":"1 48360U 21038H   26262.84101177 -.00000175  00000+0  61249-5 0  9992","line2":"2 48360  53.1614 174.6104 0000984 101.5544 258.5568 15.31704785296824","mean_motion":15.31704785,"eccentricity":9.84e-5,"inclination_deg":53.1614,"raan_deg":174.6104,"arg_perigee_deg":101.5544,"mean_anomaly_deg":258.5568,"bstar":6.1249e-6,"rev_number":29682,"period_min":94.012894266698,"perigee_km":470.051803334,"apogee_km":471.39965951954,"semimajor_km":6848.8627314268,"source":"CELESTRAK","updated_at":"2026-09-20T09:00:38.940257Z"}}}